SL-16 DEB, 29097

Orbit data source: Space-Track

SL-16 DEB, 29097 is space debris in LEO originally from a launch on Fri, 26 Mar 1993 UTC launched from the Tyuratam Missile And Space Complex (TTMTR). Debris objects in space refer to the collection of defunct objects orbiting the Earth. Examples of debris include non-operational satellites, rocket bodies, and fragments generated from explosions, collisions, or faulty payload assembly.

Loading next visibility...
Identifier
29097, 1993-016AL
Orbit
LEO
Country
Flag of CISCIS
Related business
Manufacturer
Unknown
Mission
Spacecraft
Bus & Motor
Unknown
Mass
Unknown
Launch date (UTC)
1993-03-26 (33 years ago)
Launch vehicle
Unknown
Launch site
Tyuratam Missile And Space Complex (TTMTR)
Object type
Payload
Rocket body
Debris
Shape & HBR
Unknown shape, 0.1 m
Radar Cross Section
Small (<0.1 m²)

Expand to show TLE details & history
Last TLE update: 5 days ago

TLE from 5 days ago
0 SL-16 DEB
1 29097U 93016AL  25300.96942671  .00000189  00000-0  16434-3 0  9999
2 29097  71.0048 286.7008 0127489 226.6983 164.0216 13.94522912241776
Epoch: 2025-10-27T23:15Z
TLE epoch observation values (Epoch: 2025-10-27T23:15:58.467Z)
Latitude
29.30658°
Longitude
-87.77356°
Altitude
1,005.395 km
Speed
7.307 km/s
True Right ascension
19h 51m 08s
True Declination
29° 09' 54"
Sunlit
Object was in daylight at epoch
Visualization orbit readout
Latitude
Unknown
Longitude
Unknown
Altitude
Unknown
Speed
Unknown
Apparent Right ascension
Unknown
Apparent Declination
Unknown
Sunlit
N/A
Visualization observer readout
Local Sidereal Time
22:20:34
Azimuth
Unknown
Elevation
Unknown
Doppler factor
Unknown
Orbital elements
Apogee altitude
1,003.693 km
Perigee altitude
817.842 km
Semi-major axis
7,288.904 km
Eccentricity
0.01275
Inclination
71.0048°
RAAN
286.7008°
Arg. of periapsis
226.6983°
True anomaly
164.41768°
Mean anomaly
164.0216°
Eccentric anomaly
164.22024°
Mean motion
3.48779 °/min
Orbital period
103.22 mins
BSTAR
0.00016434
Loading maneuver chart data...
Computing Atmospheric mass density...
Loading historical data...
Loading historical data...
Loading historical data...
Loading historical data...
Loading historical data...
Loading historical data...
Loading historical data...

Documentation

Showing up to 5 results
|